User: anonymous   Login
Location: Kailua
(21.4020°N, 157.7390°W)
Time: 02:56:14
(UTC-10:00)
Language:

Cosmos 2297 Rocket - Orbit

View from above orbital plane
View from above orbital plane
View from above satellite
View from above satellite

Ground track
Ground track

The orbit data is extracted from the following two-line orbital elements,

1 23405U 94077B   17145.58836908 +.00000039 +00000-0 +44456-4 0  9995
2 23405 070.9832 262.9092 0003377 317.3204 042.7656 14.15193437162068
Epoch (UTC): 25 May 2017 14:07:15
Eccentricity: 0.0003377
inclination: 70.9832°
perigee height: 839 km
apogee height: 844 km
right ascension of ascending node: 262.9092°
argument of perigee: 317.3204°
revolutions per day: 14.15193437
mean anomaly at epoch: 42.7656°
orbit number at epoch: 16206

The dashed part of the orbit path shows where the satellite is in the earth's shadow,  

DLR